Notices

What's New in latest Release from April 7th, 2021:

- Updated Glossary, including Speed of Maximum Gust, and Total Hourly Precipitation

- Updated national and regional climate services offices contacts and prices information

- Addition of station inventory lists for 1981-2010, 1971-2000, and 1961-1990 Normals.

If you haven't already, please take our survey and provide feedback about our website: https://eccc.sondage-survey.ca/f/LanguageSelection.aspx?s=442ca660-fcf1-47c0-95a9-59707d6fd709

Hourly Data Report for July 28, 2020

TORONTO CITY
ONTARIO
Current Station Operator: ECCC - MSC

43°40'00.000" N
79°24'00.000" W
112.50 m
6158355
71508
XTO

Download Data

Hourly Data (July 2020)
Hourly Data Report for July 28, 2020
TIME
LST
Temp Definition
°C
Dew Point Definition
°C
Rel Hum Definition
%
Precip. Amount Definition
mm

Wind Dir Definition
10's deg

Wind Spd Definition
km/h
Visibility Definition
km
Stn Press Definition
kPa
Hmdx Definition


Wind Chill Definition


Weather Definition


00:00 23.8 14.9 58 0.0       99.42 28   LegendNANA
01:00 22.8 14.5 59 0.0       99.43 26   LegendNANA
02:00 21.8 14.8 64 0.0       99.46 26   LegendNANA
03:00 21.2 14.3 65 0.0       99.47 25   LegendNANA
04:00 20.3 14.8 70 0.0       99.54     LegendNANA
05:00 19.9 14.6 71 0.0       99.61     LegendNANA
06:00 20.2 15.1 73 0.0       99.66     LegendNANA
07:00 21.2 15.2 69 0.0       99.70 25   LegendNANA
08:00 23.1 13.2 54 0.0       99.73 26   LegendNANA
09:00 24.4 14.9 56 0.0       99.75 28   LegendNANA
10:00 24.7 16.3 60 0.0       99.78 30   LegendNANA
11:00 26.4 15.4 51 0.0       99.77 31   LegendNANA
12:00 24.8 15.9 58 0.3       99.75 29   LegendNANA
13:00 26.9 15.4 49 0.0       99.69 31   LegendNANA
14:00 27.3 13.9 44 0.0       99.63 31   LegendNANA
15:00 30.1 11.5 32 0.0       99.61 32   LegendNANA
16:00 30.5 9.1 27 0.3       99.60 31   LegendNANA
17:00 30.0 7.3 24 0.0       99.60 30   LegendNANA
18:00 29.2 7.7 26 0.2       99.60 29   LegendNANA
19:00 28.2 8.7 30 0.0       99.62 29   LegendNANA
20:00 27.1 9.2 33 0.0       99.64 28   LegendNANA
21:00 25.2 11.0 41 0.0       99.69 27   LegendNANA
22:00 23.6 13.6 53 0.0       99.69 27   LegendNANA
23:00 23.4 14.5 57 0.0       99.70 27   LegendNANA

Notes on Data Quality.

Legend

  • E = Estimated
  • M = Missing
  • NA = Not Available*
  • [empty] = Indicates an unobserved value
Date modified: